GEFSSGP_con_cape1000_300.txt.gz
Probability
29 29 29 32 32 3 0 0 0 0 0 0 0 0 0 0 0 0 3 0 3 6 16 26 55 61 61 58 55 61 65 61 68 65 58 68 68 68 65 74 77 71 71 68 71 68 68 65 65
23 29 29 26 10 0 0 0 0 0 0 0 0 0 0 0 0 0 3 0 3 6 16 23 55 58 61 58 65 61 65 61 65 65 65 61 58 58 65 68 74 68 68 58 68 68 65 52 55
26 35 26 6 0 0 0 0 0 0 0 0 0 0 0 0 0 3 3 3 6 10 26 32 58 61 65 68 68 65 71 71 65 65 65 61 58 58 58 65 68 61 61 61 65 68 58 52 55
39 32 23 0 0 0 0 0 0 0 0 0 0 0 0 0 3 3 3 3 3 16 19 42 61 58 61 65 68 68 77 68 68 61 61 61 61 65 68 58 61 61 55 61 61 61 58 55 52
32 23 0 0 0 0 0 0 0 0 0 0 0 0 0 0 0 0 3 6 6 13 26 35 61 61 58 61 65 68 68 71 68 65 65 65 68 71 61 55 55 55 58 58 65 61 61 55 45
23 10 3 0 0 0 0 0 0 0 0 0 0 0 0 0 0 0 3 10 10 16 23 35 45 52 55 58 68 65 65 55 68 61 61 55 58 58 65 52 45 48 45 48 55 55 58 58 45
16 0 0 0 0 0 0 0 0 0 0 0 0 0 0 0 3 0 0 6 10 16 19 32 39 42 42 52 55 52 55 61 65 68 65 61 61 61 55 55 45 39 42 42 48 45 45 35 35
16 0 0 0 0 0 0 0 0 0 0 0 0 0 0 3 0 0 6 10 6 10 19 29 29 35 35 35 55 55 65 61 68 71 61 61 61 58 48 52 52 48 48 52 45 45 39 26 29
13 3 0 0 0 0 0 0 0 0 0 0 0 0 0 3 0 0 3 13 13 16 19 23 26 39 39 26 35 58 55 58 58 65 65 58 26 23 35 39 55 48 55 52 52 42 29 26 32
3 0 0 0 0 0 0 0 0 0 0 0 0 0 3 6 3 6 6 6 10 16 13 26 23 39 35 29 52 55 42 48 58 65 52 42 48 42 19 32 45 42 52 39 39 42 26 23 26
0 0 0 0 0 0 0 0 0 0 0 0 0 3 3 6 6 6 3 6 10 16 10 19 29 39 32 42 52 52 42 65 52 55 55 58 39 35 32 39 55 52 32 23 29 26 23 19 29
0 0 0 0 0 0 0 0 0 0 0 0 0 6 3 6 3 3 3 6 13 16 13 16 19 32 48 55 45 48 48 48 45 52 48 48 42 45 45 55 42 48 48 42 19 29 26 29 29
0 0 0 0 0 0 0 0 0 0 0 0 0 6 6 10 10 6 3 3 19 26 13 19 29 45 58 58 55 39 48 45 39 58 45 48 35 45 45 68 58 39 32 32 42 39 29 42 35
0 0 0 0 0 0 0 0 0 0 0 0 10 10 10 6 6 3 10 10 19 23 23 19 26 39 55 65 68 58 35 55 45 52 52 52 39 55 48 52 52 42 45 39 42 42 48 42 42
0 0 0 0 0 0 0 0 0 0 0 0 10 10 10 10 6 6 6 16 16 26 26 29 26 39 55 45 42 39 35 29 45 45 55 55 42 52 48 48 42 45 45 52 52 52 48 61 42
0 0 0 0 0 0 0 0 0 0 0 0 13 10 10 10 6 6 10 16 16 19 29 32 13 29 48 55 55 35 35 32 42 45 48 52 48 48 52 45 42 48 42 48 61 52 45 45 39
0 0 0 0 0 0 0 0 3 3 3 6 13 13 10 13 13 10 10 10 29 39 42 39 35 42 45 52 55 55 52 52 42 55 55 52 42 42 42 55 61 52 48 48 45 58 55 42 39
0 0 0 0 0 0 0 3 3 3 3 3 6 13 13 10 13 6 3 13 35 35 48 48 48 58 55 55 61 58 55 52 45 48 61 55 42 52 55 52 61 42 52 55 65 71 58 45 42
0 0 0 0 0 0 3 3 3 6 6 6 10 13 13 10 6 3 6 10 26 39 55 58 55 65 71 68 58 52 45 45 45 52 58 61 48 52 58 42 58 55 52 58 55 58 52 35 39
0 0 0 0 0 0 3 3 3 6 6 6 6 13 10 13 10 6 13 16 29 39 61 61 61 61 74 71 71 68 58 39 39 45 58 58 55 52 39 61 42 61 68 68 65 71 45 29 35
0 0 0 0 0 3 3 0 0 6 6 6 10 13 13 6 16 13 13 23 23 32 48 45 55 61 71 71 68 65 68 52 39 45 65 61 58 48 48 45 45 55 45 61 65 68 58 42 39
0 0 0 0 0 0 0 0 3 3 6 13 13 13 16 13 13 16 16 32 32 35 48 52 65 65 68 68 68 61 61 52 48 61 58 68 58 55 48 52 55 65 48 65 55 48 48 55 39
0 0 0 0 0 0 0 0 0 10 10 13 13 13 16 13 16 19 19 32 35 29 39 48 68 71 68 68 71 71 48 52 48 55 68 68 61 58 52 48 55 61 52 61 65 61 52 39 45
0 0 0 0 0 0 0 0 0 6 6 6 19 13 19 19 26 26 26 39 48 42 45 48 61 74 74 71 68 77 68 65 65 71 71 68 65 61 45 48 55 61 61 68 65 61 58 52 55
0 0 0 0 0 0 0 0 0 3 6 10 13 19 23 19 26 32 35 42 55 52 48 48 61 68 68 68 68 71 71 71 68 68 65 61 48 52 61 39 61 58 58 65 71 61 61 55 58
0 0 0 0 0 0 0 0 0 3 10 10 13 13 16 29 32 32 35 42 52 55 58 58 68 71 65 65 65 68 68 65 55 65 55 52 48 35 48 58 58 58 55 48 58 45 58 58 65
0 0 0 0 0 0 0 0 3 3 10 13 13 10 16 26 32 35 26 32 48 61 61 61 71 71 74 68 68 71 71 71 71 71 68 55 61 48 48 55 58 58 61 58 61 61 61 65 65
0 0 3 0 0 0 0 0 0 0 3 13 13 13 16 16 19 23 29 32 35 52 61 61 68 74 74 74 74 65 74 77 77 71 65 65 61 55 52 52 58 58 58 61 65 65 65 61 61
0 3 3 0 0 0 0 0 0 3 3 10 6 16 13 16 16 19 32 42 48 45 55 58 65 68 74 71 77 77 77 74 74 74 68 61 58 58 58 48 58 58 55 58 65 65 61 58 52
0 0 0 0 0 0 0 0 0 0 0 0 3 10 16 19 16 19 26 42 48 48 42 58 61 61 71 74 74 77 77 74 74 68 65 61 58 55 52 48 45 48 48 48 52 52 52 52 52

GEFSSGP_con_cape1000_306.txt.gz
Probability
16 19 42 61 58 35 3 0 0 0 0 0 0 0 0 3 3 0 6 10 19 26 29 48 74 68 65 68 65 65 68 71 61 65 68 58 68 68 65 65 61 68 61 52 55 55 58 55 55
19 39 55 55 26 3 0 0 0 3 3 3 0 0 0 0 0 6 13 13 19 19 29 29 71 71 77 74 68 68 68 61 65 65 68 68 68 68 68 61 61 61 58 55 55 55 52 55 52
26 58 58 42 6 0 0 3 3 3 3 0 0 0 0 0 0 6 13 23 16 13 29 39 61 55 68 71 74 71 68 61 65 58 58 61 61 61 71 65 65 61 55 52 52 52 55 48 45
48 55 35 19 3 0 0 0 0 3 3 0 0 0 3 3 3 6 16 16 16 19 10 39 55 58 52 65 65 71 68 65 61 58 52 58 61 55 68 58 58 55 55 55 52 48 45 52 48
55 45 32 10 0 3 3 3 3 0 0 0 3 0 6 6 10 10 13 23 16 10 10 29 61 68 65 61 74 74 65 65 65 68 65 58 58 52 52 58 55 45 42 48 55 52 39 42 42
32 23 6 0 0 0 0 0 0 0 0 0 6 3 3 6 13 13 16 23 16 19 19 42 74 71 65 65 65 61 58 58 58 61 58 65 74 61 61 58 52 42 48 48 42 42 35 35 45
13 19 0 0 0 0 0 0 0 0 0 0 3 3 3 6 10 13 16 13 10 13 23 39 35 61 71 65 61 61 58 65 55 55 55 58 65 65 61 55 48 52 48 45 39 35 35 32 39
6 3 0 0 0 0 0 0 0 0 3 0 3 3 3 3 10 10 10 19 19 19 26 32 35 42 42 42 71 71 68 68 65 58 65 68 71 65 58 55 48 42 42 42 39 39 45 39 29
6 6 0 0 0 0 0 0 0 0 3 0 0 6 6 13 13 6 10 13 19 26 26 23 29 39 42 35 42 58 71 77 65 65 65 61 48 39 45 42 55 45 42 45 39 39 45 42 32
3 3 0 0 0 0 0 0 0 0 3 3 6 6 10 6 10 13 6 10 13 26 26 32 35 35 42 29 52 55 45 61 61 65 61 61 61 55 29 42 55 52 48 52 58 58 48 35 23
0 0 3 0 0 0 0 0 0 0 3 6 6 6 6 6 6 16 13 10 16 26 29 39 42 52 45 61 58 65 55 74 74 68 71 77 65 45 39 45 55 71 48 48 48 45 32 29 32
0 0 0 0 0 0 0 0 0 0 0 6 6 6 0 13 16 13 16 23 23 32 26 39 48 55 65 61 58 65 52 74 68 77 71 71 77 74 74 77 61 58 58 61 48 52 42 32 32
0 0 0 0 0 0 0 0 0 0 0 6 10 10 6 10 13 16 19 29 26 29 26 42 65 81 87 90 81 52 61 58 61 74 81 77 68 77 71 74 74 61 71 61 65 58 68 58 48
0 0 0 0 0 0 0 0 0 0 0 6 10 6 10 10 13 16 19 39 39 35 45 55 58 77 87 87 81 81 68 81 65 74 71 65 77 84 74 74 68 68 68 77 77 68 65 58 55
0 0 0 0 0 0 0 0 0 0 0 0 6 6 10 13 19 19 29 29 42 45 52 58 55 71 77 77 68 55 65 55 71 74 84 81 81 81 84 81 74 77 77 71 71 71 74 65 61
0 0 0 0 0 0 0 0 0 0 0 0 6 10 6 13 10 23 23 39 55 55 65 61 23 65 81 84 81 68 55 71 74 74 74 77 71 81 90 87 71 84 81 84 84 87 71 71 61
0 0 0 0 0 0 0 0 0 0 0 0 3 10 13 10 10 10 16 29 55 68 77 77 77 68 68 77 81 77 77 77 77 81 77 77 68 71 77 81 90 77 84 84 58 74 74 65 68
0 0 0 0 0 0 3 6 0 0 0 3 3 13 10 6 6 10 19 35 55 74 77 77 77 87 84 81 84 81 77 74 81 81 84 77 68 74 81 84 90 87 84 87 87 81 77 71 68
0 0 0 0 0 0 3 3 3 3 0 3 6 16 13 6 6 10 23 35 42 74 81 81 81 87 87 84 81 77 77 81 84 77 74 71 77 74 84 81 87 90 94 84 74 81 71 61 68
0 0 0 0 0 0 6 6 3 3 3 6 10 16 23 10 10 13 26 39 45 71 77 84 84 84 81 84 87 84 81 81 74 81 74 74 81 84 65 90 84 90 90 77 77 74 68 68 61
0 0 0 0 3 3 0 3 10 3 3 3 6 10 19 16 19 23 16 26 39 61 74 68 77 81 84 81 81 81 81 77 77 81 77 77 77 77 84 77 84 84 84 77 74 77 74 68 58
0 0 0 0 0 0 0 0 6 13 3 3 6 13 19 19 23 23 16 29 39 58 61 74 81 74 77 77 81 81 81 77 81 87 84 81 77 71 71 77 81 81 77 77 68 77 77 68 65
0 0 0 0 0 0 0 0 6 13 6 6 6 6 13 19 16 19 26 45 48 42 55 71 81 77 81 81 81 84 81 84 84 84 84 81 77 77 74 81 77 77 74 74 74 77 74 71 68
0 0 0 0 3 3 0 0 0 6 13 10 10 6 16 16 23 16 19 35 39 48 52 61 77 84 81 77 77 77 84 84 84 87 81 74 81 84 71 71 71 71 71 71 71 71 71 74 74
0 3 6 6 3 0 0 0 3 0 0 3 6 13 13 23 23 32 39 39 48 55 52 58 74 81 84 77 74 81 77 81 81 84 84 74 74 74 74 68 71 71 71 71 71 68 65 68 68
0 0 6 3 0 0 0 0 0 0 0 0 3 10 13 19 29 29 39 45 48 55 58 65 77 87 81 77 81 77 77 81 84 81 77 77 68 71 77 68 65 71 71 65 65 65 61 65 65
0 0 0 0 0 0 0 0 0 6 6 3 0 6 16 19 29 29 29 35 39 48 58 68 74 81 84 74 77 84 81 81 84 84 81 81 77 71 71 71 71 68 71 71 71 71 68 68 68
0 0 0 0 0 0 0 0 3 3 0 0 0 10 16 16 26 29 26 29 35 48 52 68 81 84 84 87 81 74 81 84 84 81 81 81 74 71 68 71 65 65 68 65 68 68 74 74 71
0 0 0 0 0 0 0 0 3 3 3 0 0 6 16 23 19 23 32 42 48 42 55 68 71 77 84 77 81 81 81 77 77 77 77 77 74 65 65 61 65 68 68 68 65 65 61 55 58
0 0 0 0 3 3 0 0 0 0 0 0 0 10 13 10 13 23 32 42 52 48 65 74 71 74 74 81 77 77 77 77 77 71 71 77 77 68 65 61 58 58 61 61 55 48 52 52 55

GEFSSGP_con_cape1000_312.txt.gz
Probability
35 10 13 19 23 3 0 0 0 0 0 0 0 0 0 0 0 0 3 13 13 13 32 77 87 90 87 87 87 77 74 71 71 71 77 81 84 74 74 68 61 65 71 58 58 65 55 55 61
3 10 16 23 3 0 0 0 0 0 0 0 0 0 0 3 3 3 3 16 16 16 13 61 87 90 84 84 84 84 84 77 81 77 81 77 68 65 65 61 65 58 61 65 65 55 55 52 52
3 3 13 13 0 0 0 0 0 0 0 0 0 0 0 0 3 3 6 16 16 13 19 58 87 84 90 90 90 90 87 81 74 74 71 68 71 68 61 61 61 58 61 58 61 58 48 52 52
13 13 19 3 0 0 0 0 0 0 0 0 0 0 3 3 3 6 6 10 13 16 35 61 81 87 81 87 90 87 87 87 74 65 68 74 61 68 61 58 52 58 61 55 61 55 55 52 52
23 26 6 0 0 0 0 0 0 3 0 0 0 3 0 3 6 6 3 3 10 13 32 55 84 81 84 87 84 77 84 84 84 74 74 74 74 77 71 65 55 55 48 48 55 45 45 48 48
13 10 0 0 0 0 0 0 0 0 0 0 0 0 0 0 3 3 0 0 6 10 23 58 87 84 84 81 81 77 81 84 81 77 65 65 71 71 71 65 55 58 52 45 45 42 42 48 48
6 6 3 0 0 0 0 0 0 0 0 0 0 0 0 0 0 0 0 0 6 10 19 35 58 74 84 84 81 84 84 81 71 65 61 65 68 61 55 61 58 55 58 52 48 52 45 45 39
3 6 0 0 0 0 0 0 0 0 0 0 0 0 0 0 0 0 0 0 6 6 10 13 23 29 52 68 81 84 84 81 81 77 74 68 74 61 61 65 65 58 55 58 55 48 52 48 45
3 3 0 0 0 0 0 0 0 0 0 0 0 0 0 0 0 0 0 0 3 3 10 3 10 10 16 23 58 68 74 74 74 58 77 65 26 23 39 52 61 65 58 65 61 61 55 52 39
0 0 0 0 0 0 0 0 0 0 0 0 0 3 3 0 0 0 0 3 3 3 3 6 6 3 10 13 16 23 29 39 26 19 29 16 13 10 29 39 61 61 65 65 58 58 48 26 13
3 0 0 0 0 0 0 0 0 0 0 0 3 3 3 3 3 3 3 3 3 3 6 6 3 0 0 6 6 10 10 6 6 6 3 3 3 6 13 13 16 26 32 29 26 16 13 10 6
3 0 0 0 0 0 0 0 0 0 0 3 6 3 3 6 3 3 3 0 0 3 3 3 3 0 0 0 3 10 6 3 6 3 3 3 3 3 6 6 6 6 3 6 6 10 10 10 6
0 0 0 0 0 0 0 0 0 0 6 6 6 3 3 3 0 0 0 0 0 6 3 3 3 3 0 0 0 0 0 3 3 6 6 0 3 3 6 6 6 3 3 6 6 6 6 6 10
0 0 0 0 0 0 0 0 0 0 6 6 6 3 3 0 3 3 0 3 3 6 6 3 3 6 0 3 3 6 3 3 3 6 6 10 10 3 3 3 6 6 6 6 6 0 3 3 3
0 0 0 0 0 0 0 0 3 3 6 6 6 6 3 0 0 3 0 0 3 3 10 10 10 13 10 10 10 6 6 10 6 6 6 10 10 10 6 6 6 3 3 3 3 3 6 6 3
0 0 0 0 0 0 0 0 0 3 3 6 6 6 3 0 0 0 0 0 0 3 6 13 16 10 10 10 13 10 13 13 6 10 10 13 16 16 13 10 3 3 3 6 3 3 3 6 3
0 0 0 0 0 0 0 0 0 3 3 3 3 6 3 3 0 0 0 3 0 10 13 10 13 16 19 13 13 13 10 10 10 13 10 10 13 10 13 10 6 6 6 0 6 3 3 6 6
0 0 0 0 0 0 0 0 0 3 6 3 3 6 3 3 0 0 0 6 3 6 13 13 16 19 19 16 13 16 13 13 10 16 10 10 13 6 10 10 3 6 6 6 6 3 6 6 6
0 0 0 0 0 0 0 0 0 3 3 3 0 3 3 3 0 0 6 13 13 13 13 10 16 19 26 19 16 13 6 13 10 16 19 16 19 13 6 16 10 10 10 13 16 6 6 6 6
0 0 0 0 0 0 0 0 0 3 3 3 3 3 3 3 0 3 6 16 23 23 23 19 16 19 19 19 19 16 19 19 23 23 19 23 19 19 23 13 16 16 10 10 13 6 16 13 10
0 0 0 0 0 0 0 0 0 0 3 3 3 3 6 3 0 3 13 19 26 29 29 23 16 23 26 26 26 19 19 26 19 26 29 29 35 32 23 16 13 13 19 13 10 26 23 13 10
0 0 0 0 0 0 0 0 0 0 0 3 6 3 3 6 6 3 6 13 16 23 32 23 23 23 35 35 32 23 19 19 23 26 26 29 35 32 23 16 16 19 13 19 19 19 19 13 13
0 0 0 0 0 0 0 0 0 0 0 0 6 6 3 6 3 6 10 6 16 29 32 35 32 26 39 23 26 26 23 16 19 19 19 23 26 26 23 19 19 16 23 19 16 16 16 16 13
0 0 0 0 0 0 0 0 0 0 0 0 3 6 6 6 6 10 10 13 19 29 35 35 35 32 32 32 26 19 19 23 23 29 19 23 23 26 23 23 23 19 19 23 23 19 23 19 23
0 0 0 0 0 0 0 0 0 0 0 3 3 3 6 6 3 10 13 13 16 29 39 32 35 29 35 32 35 26 19 19 19 19 23 26 29 26 23 26 23 29 29 32 32 26 26 23 23
0 0 0 0 0 0 0 0 0 0 0 3 3 3 6 6 6 10 16 16 13 26 32 35 35 32 39 32 29 26 23 19 26 29 26 26 29 23 23 23 23 26 32 29 32 35 32 29 26
0 0 0 0 0 0 0 0 0 0 0 6 10 13 13 10 6 6 10 10 13 19 35 32 32 35 39 35 26 26 32 23 26 26 26 26 23 35 26 26 23 26 26 32 29 32 35 29 23
0 0 0 0 0 0 0 0 0 0 0 3 6 10 16 10 13 10 6 3 13 13 26 35 32 32 35 39 35 35 35 32 26 26 29 29 32 26 32 32 29 26 23 32 32 26 29 26 26
0 0 0 0 0 0 0 0 0 0 0 6 6 10 13 13 13 13 10 10 10 19 29 32 29 26 35 35 42 39 35 35 35 32 29 32 29 32 32 32 29 26 29 35 35 32 29 29 32
0 0 0 0 0 0 0 0 0 0 3 3 6 10 6 13 16 16 19 16 13 19 26 35 32 32 35 42 45 42 32 39 39 35 35 35 29 32 35 32 32 35 39 35 35 35 35 35 35

GEFSSGP_con_cape1000_318.txt.gz
Probability
16 13 3 10 0 0 0 0 0 0 0 0 0 0 0 0 0 0 0 0 6 6 19 74 74 71 71 68 68 74 71 65 71 77 74 71 71 68 61 61 58 58 68 71 68 68 58 68 68
6 6 6 0 0 0 0 0 0 0 0 0 0 0 3 3 3 0 0 10 10 6 19 65 81 81 74 68 74 74 74 74 71 77 81 71 65 68 68 61 58 65 65 65 68 65 61 58 58
0 6 6 0 0 0 0 0 0 0 0 0 0 3 3 3 3 3 0 10 6 10 16 55 77 81 74 71 71 77 77 71 68 74 77 74 65 65 65 61 58 61 58 58 55 71 68 61 61
6 10 0 3 0 0 0 0 0 0 0 0 0 3 3 3 3 3 6 10 13 10 23 58 81 77 74 74 77 74 68 68 68 65 65 65 74 68 58 58 68 58 55 58 58 58 61 58 52
6 0 0 0 0 0 0 0 0 0 0 0 0 0 0 6 6 3 6 10 6 10 23 52 81 81 81 81 84 84 74 61 68 68 68 71 68 65 55 55 55 55 55 45 45 39 52 52 48
0 0 0 0 0 0 0 0 0 0 0 0 0 0 0 0 0 0 3 3 6 10 23 52 77 71 84 87 84 81 74 71 68 61 71 71 61 58 55 52 52 55 55 55 52 52 48 39 35
3 0 0 0 0 0 0 0 0 0 0 0 0 0 0 0 0 0 0 3 6 6 16 26 45 65 84 87 81 81 81 71 68 68 68 68 71 55 55 55 55 58 58 48 45 48 42 45 42
0 0 0 0 0 0 0 0 0 0 0 0 0 0 0 0 0 0 3 3 6 3 3 10 23 23 29 65 81 77 81 81 65 65 68 61 55 48 61 74 74 68 58 52 48 42 45 45 45
0 0 0 0 0 0 0 0 0 0 0 0 0 0 0 0 0 0 0 3 0 0 0 3 6 6 13 23 55 61 65 65 65 52 58 42 10 13 26 55 65 65 65 65 58 52 45 45 32
0 3 0 0 0 0 0 0 0 0 0 0 3 0 0 0 0 0 0 0 3 0 0 3 3 3 6 10 13 16 16 13 6 0 0 0 0 0 13 35 48 52 48 48 55 52 45 16 10
3 0 0 0 0 0 0 0 0 0 0 3 3 0 0 3 0 0 0 0 3 0 0 0 0 3 3 3 3 0 0 0 0 0 0 0 0 3 6 6 16 23 26 19 26 19 10 6 3
3 0 0 0 0 0 0 0 0 0 3 3 3 3 3 0 0 0 0 0 0 3 0 0 0 0 0 0 0 0 0 0 0 0 0 0 0 3 3 6 3 3 6 6 3 6 10 6 3
0 0 0 0 0 0 0 0 0 3 3 3 3 3 0 0 0 0 0 0 0 0 0 0 0 0 0 0 0 0 0 0 0 0 0 0 3 3 3 0 3 3 3 3 3 3 6 6 6
0 0 0 0 0 3 0 0 3 3 3 3 3 0 0 0 0 0 0 0 0 3 3 0 0 0 0 0 0 0 0 0 0 0 0 0 0 3 3 0 0 3 3 3 3 3 3 3 6
0 0 0 0 0 0 0 0 0 6 3 3 0 0 0 0 0 0 0 0 0 3 3 0 3 0 0 0 0 0 0 0 0 0 0 0 0 0 0 0 0 0 3 3 3 3 0 3 3
0 0 0 0 0 0 0 0 0 6 3 3 0 0 0 0 0 0 0 0 0 3 3 6 10 0 0 0 0 0 0 3 3 0 0 3 3 3 0 0 0 0 0 0 3 0 0 3 3
0 0 0 0 0 0 0 0 0 6 6 3 0 0 3 0 0 0 0 0 0 0 3 3 6 0 0 0 0 3 3 3 3 0 0 3 10 10 0 0 0 0 0 0 3 0 0 6 10
0 0 0 0 0 0 0 0 0 6 6 6 3 0 0 0 0 0 0 0 0 0 0 3 0 0 0 0 0 3 3 3 3 3 3 10 6 6 6 0 0 0 0 3 0 3 6 6 6
0 0 0 0 0 0 0 0 0 6 6 6 3 3 0 0 0 0 0 3 0 0 0 0 0 0 3 3 0 0 0 0 6 3 3 6 3 3 10 10 0 0 0 0 6 6 6 10 6
0 0 0 0 0 0 0 0 0 6 6 3 3 3 3 0 0 0 0 3 0 0 0 0 0 3 3 6 6 0 0 10 10 3 10 6 10 10 10 10 6 3 6 6 6 3 3 3 3
0 0 0 0 0 0 0 0 0 0 3 0 0 0 0 3 0 0 0 0 0 0 3 3 0 0 0 3 10 13 10 10 6 6 10 10 6 13 10 6 6 3 6 10 10 3 3 3 3
0 0 0 0 0 0 0 0 0 0 0 0 0 0 0 6 0 3 3 3 3 3 3 0 0 0 3 3 10 6 10 13 13 10 10 13 16 19 16 16 6 6 10 6 10 10 3 3 13
0 0 0 0 0 0 0 0 0 0 3 3 3 0 0 0 0 0 6 3 3 3 3 3 0 3 3 3 10 10 10 10 10 10 10 10 13 19 16 16 13 13 13 10 10 13 10 10 10
0 0 0 0 0 0 0 0 0 0 3 3 3 3 0 3 0 0 6 10 10 3 3 6 3 3 6 6 10 10 10 6 3 6 6 6 10 10 13 10 10 10 16 13 13 13 13 13 16
0 0 0 0 0 0 0 0 0 0 3 3 3 3 0 10 6 6 6 6 6 3 10 10 13 6 3 3 13 10 6 3 6 6 6 6 6 3 3 10 13 10 13 13 13 13 16 19 19
0 0 0 0 0 0 0 0 0 3 3 3 6 3 0 6 6 10 10 6 3 10 16 13 13 3 3 6 6 10 10 10 6 3 3 6 3 3 3 6 13 13 16 16 13 13 16 19 19
0 0 0 0 0 0 0 0 3 3 6 6 6 3 3 6 6 10 6 3 3 10 16 16 13 10 6 6 3 3 6 6 6 10 6 10 10 10 10 10 10 16 23 26 16 16 23 23 19
0 0 0 0 0 0 0 0 3 3 6 6 6 3 6 6 6 10 6 6 10 10 10 13 10 10 6 6 6 10 6 6 6 10 10 13 16 10 10 13 16 19 19 23 19 19 23 26 29
0 0 0 0 0 0 0 0 0 3 6 6 6 10 6 6 10 10 3 6 6 10 10 6 13 6 6 6 10 10 10 10 6 6 6 13 16 16 16 13 19 19 19 19 19 16 16 23 26
0 0 0 0 0 0 0 0 0 3 6 6 6 6 6 6 3 3 3 3 6 10 6 6 10 10 10 13 13 10 10 10 10 13 13 13 16 13 16 19 19 26 23 26 23 26 29 29 32

GEFSSGP_con_cape1000_324.txt.gz
Probability
19 19 29 35 42 3 0 0 0 0 0 0 3 0 0 0 0 3 10 10 19 23 26 42 71 71 65 65 61 68 68 71 74 74 68 58 55 52 58 52 58 55 48 55 52 58 48 52 52
23 29 39 39 3 0 0 0 0 0 0 0 3 3 0 3 3 0 13 16 19 23 29 35 81 77 68 68 65 65 71 65 65 61 61 68 65 68 65 61 61 58 52 52 48 48 39 45 48
26 29 32 10 0 0 0 0 0 0 0 0 0 0 6 6 0 3 10 13 16 19 42 58 71 74 74 74 61 55 65 65 68 55 58 65 58 65 65 61 55 52 48 55 58 45 45 39 48
32 35 19 3 0 0 0 0 0 3 3 0 0 3 3 6 6 3 10 13 19 23 35 48 71 74 77 65 61 68 61 61 55 58 61 68 65 65 68 61 48 52 52 58 61 61 61 52 42
32 26 3 0 0 0 0 0 0 0 0 0 0 3 13 13 13 3 10 10 13 23 29 45 74 77 77 74 61 74 65 61 55 55 61 68 68 68 65 55 48 48 48 39 45 52 58 45 48
26 6 0 0 0 0 0 0 0 0 3 0 0 0 16 19 16 3 3 3 10 19 32 39 77 77 68 74 74 71 65 61 58 61 55 55 61 55 52 52 45 39 32 39 39 39 45 42 48
23 0 0 0 0 0 0 0 0 0 0 0 0 0 19 19 13 6 3 6 13 13 19 26 35 52 74 74 77 71 74 77 61 58 55 55 58 55 55 48 45 45 45 39 45 45 42 52 52
23 0 0 0 0 0 0 0 0 0 0 0 0 3 10 16 6 6 13 10 16 13 19 23 26 39 52 52 65 68 74 68 61 55 52 58 55 55 52 52 45 42 42 48 45 48 48 52 52
23 0 0 0 0 0 0 0 0 0 0 3 3 3 10 10 6 10 10 13 13 6 3 10 13 32 45 29 23 48 61 55 52 52 45 42 32 26 35 39 45 45 52 45 42 32 39 42 39
3 0 0 0 0 0 0 0 0 0 0 6 3 6 3 6 10 6 6 10 10 10 3 23 10 19 16 10 42 42 29 55 55 55 39 42 42 45 10 32 42 39 39 39 45 32 29 32 23
0 0 0 0 0 0 0 0 0 0 0 3 10 13 13 10 16 10 0 10 16 19 13 23 23 26 16 39 35 35 45 61 39 29 32 45 39 35 29 32 48 45 39 35 29 26 26 16 32
0 0 0 0 0 0 0 3 0 0 0 3 6 10 10 6 6 10 3 10 23 16 26 23 26 35 45 39 35 45 42 32 32 45 32 35 35 35 32 32 29 32 35 39 32 32 23 19 16
0 0 0 0 0 0 0 3 3 3 10 6 13 6 3 6 3 3 6 3 16 19 26 23 35 42 45 61 45 29 32 19 32 48 35 32 29 29 26 39 32 32 39 35 32 32 39 26 10
0 3 3 0 0 0 0 3 6 6 10 6 10 6 3 6 6 6 3 3 10 16 26 29 39 42 55 58 58 39 35 48 45 42 42 35 35 32 35 29 35 35 39 29 39 32 42 32 32
0 3 3 3 0 0 0 3 6 6 10 6 10 10 3 6 13 10 6 6 13 19 26 35 35 42 52 39 35 35 45 39 48 45 42 39 29 42 39 39 39 35 35 45 52 45 42 35 35
0 0 3 3 3 0 0 6 3 3 6 6 10 10 16 16 13 3 6 13 13 10 39 39 13 29 42 58 55 39 42 42 45 48 45 48 45 45 45 42 48 45 55 48 45 32 39 39 32
0 0 3 3 0 0 0 0 6 10 6 10 10 10 16 16 6 10 3 6 16 26 45 42 29 39 42 55 58 48 52 55 48 48 48 55 48 45 48 42 52 55 52 48 29 39 45 45 45
0 0 0 0 0 0 0 3 10 13 10 10 13 10 16 19 13 16 13 6 13 29 48 48 55 61 55 48 58 55 58 48 52 45 58 48 45 45 55 52 61 48 48 61 55 61 61 52 65
0 0 0 0 0 3 6 3 6 13 16 6 10 13 13 16 19 19 23 23 23 29 48 58 58 61 71 61 55 55 55 52 52 52 55 55 48 48 65 55 61 65 55 52 45 45 58 52 55
0 0 0 0 3 3 6 6 6 13 13 10 16 19 10 13 13 29 29 29 26 39 42 48 55 55 68 71 68 65 61 42 39 45 58 55 48 58 48 58 48 55 74 61 68 71 58 39 42
0 0 0 0 3 0 3 3 6 10 10 13 16 16 16 6 13 29 42 35 32 45 45 35 55 61 68 68 55 61 68 58 42 55 55 55 48 55 61 58 55 68 58 65 74 68 65 55 52
0 0 0 0 0 3 0 0 6 10 13 19 26 23 19 13 13 26 35 39 35 45 42 52 74 71 71 68 58 61 58 61 55 65 55 55 58 55 61 55 61 61 58 71 61 55 58 65 61
0 0 0 0 0 0 3 0 0 13 13 13 29 23 13 16 16 16 29 35 45 45 42 55 74 74 74 71 74 71 68 61 55 58 61 65 52 55 58 61 61 65 65 65 61 58 68 55 58
3 3 3 3 3 0 0 0 0 3 13 13 19 16 19 19 16 26 35 45 55 48 52 52 74 81 71 68 68 74 68 71 61 68 61 52 52 55 48 55 61 58 65 65 61 61 55 55 52
3 0 3 0 3 0 0 0 0 3 3 6 10 16 19 19 29 29 39 48 55 58 58 61 77 77 77 71 68 68 68 68 65 61 52 55 45 52 55 55 61 61 65 61 58 55 55 52 52
3 0 0 0 0 0 0 0 0 3 6 6 10 13 16 19 26 29 42 55 55 65 55 65 74 77 74 68 65 68 65 58 58 61 52 48 45 39 52 58 61 61 65 58 55 55 55 55 55
3 3 3 0 0 0 0 0 0 10 10 10 16 13 19 23 23 35 45 52 52 48 61 68 71 74 71 68 68 68 65 65 61 74 65 52 58 48 55 61 61 65 65 65 61 55 55 55 55
3 3 0 0 0 0 0 0 0 3 10 10 16 19 26 32 26 32 45 55 52 48 58 55 68 74 71 68 65 55 71 68 71 65 71 68 58 58 58 58 58 61 65 65 65 58 58 58 58
3 3 0 0 0 0 0 0 0 6 6 6 13 19 29 29 35 45 48 48 52 45 45 52 58 68 61 61 65 61 61 65 65 55 65 65 65 58 58 58 61 61 61 65 68 58 58 58 58
0 0 0 0 0 0 0 3 3 6 6 6 16 26 32 35 42 45 45 52 55 48 42 52 58 52 52 55 55 61 61 61 55 52 58 58 61 58 61 61 61 58 65 68 65 61 61 61 61

GEFSSGP_con_cape1000_330.txt.gz
Probability
10 10 29 58 65 39 6 0 0 3 0 3 6 6 10 10 0 0 13 29 29 32 35 58 71 65 55 58 58 58 61 65 55 55 55 55 55 52 52 52 48 42 39 42 48 48 48 42 45
23 42 58 61 42 3 3 6 6 6 3 6 6 6 3 6 3 3 10 29 32 26 26 32 74 65 58 55 61 61 61 61 55 58 58 52 48 42 52 55 42 39 32 39 42 42 39 42 42
29 52 58 52 13 3 3 3 3 6 6 3 3 6 3 3 6 3 10 19 32 32 39 68 61 61 52 61 61 61 61 61 65 58 55 58 58 58 52 52 39 42 39 39 35 39 32 39 39
55 61 52 29 0 3 3 6 6 6 6 6 0 3 6 10 3 3 16 23 26 26 16 55 81 71 65 58 61 58 58 58 48 61 58 61 61 65 65 55 52 52 52 45 42 45 42 35 29
55 35 32 0 0 0 3 3 3 6 10 10 6 13 13 10 3 10 19 29 26 32 29 45 84 81 71 68 65 65 55 55 52 52 71 61 68 58 55 48 48 48 42 39 42 39 39 35 26
32 19 3 0 0 0 0 0 3 3 6 3 6 6 6 13 3 10 16 26 16 26 32 45 81 84 74 68 55 52 45 52 52 52 58 52 55 52 52 48 35 26 32 39 39 39 39 35 32
23 10 0 0 0 0 6 3 3 6 6 3 3 10 13 10 16 13 13 16 19 26 29 42 48 71 77 65 68 48 52 61 55 55 52 52 52 52 39 52 39 35 32 32 29 29 39 39 42
0 6 0 0 0 0 0 3 3 3 6 3 3 6 13 16 13 10 10 19 26 35 35 48 58 55 58 55 68 68 74 71 61 48 48 58 61 48 52 55 45 35 29 32 39 42 45 45 42
3 3 0 3 0 0 3 3 3 3 6 6 6 10 13 10 6 13 19 16 32 32 35 35 39 55 52 29 45 65 68 58 61 52 45 55 48 29 48 29 45 48 45 42 45 48 48 52 42
3 3 0 3 3 0 3 3 3 6 6 13 13 10 10 10 6 13 19 19 19 32 32 39 39 42 42 26 52 52 39 68 65 58 65 68 74 52 16 42 61 55 61 58 65 68 58 45 35
0 0 3 3 0 3 3 3 6 6 10 16 13 10 13 16 16 16 19 19 23 23 26 39 45 61 55 48 52 58 61 77 55 58 65 74 71 52 39 42 48 58 52 45 48 45 32 39 35
0 3 3 3 0 0 0 0 3 10 10 16 16 10 13 16 16 16 16 26 26 32 29 35 42 58 68 68 58 61 55 58 52 65 58 68 74 81 77 74 61 61 58 65 52 55 42 45 32
3 3 3 3 0 0 0 0 0 6 10 16 13 6 6 10 6 16 23 32 29 32 42 52 58 81 77 90 84 52 58 48 55 74 61 65 81 81 65 74 81 65 68 55 68 65 61 52 45
0 3 0 3 3 3 3 3 3 6 3 10 10 10 6 6 3 13 26 39 42 42 39 52 55 84 81 84 90 77 52 81 55 68 55 58 81 87 81 74 81 71 71 71 74 55 65 71 55
0 0 0 0 3 3 3 6 3 3 3 6 10 10 10 6 10 16 23 26 32 48 48 48 55 65 84 77 81 55 55 52 65 68 58 58 77 84 90 81 81 74 71 68 74 71 65 71 52
3 0 3 3 3 0 3 6 3 3 0 6 10 10 10 16 6 16 23 35 42 48 65 65 23 58 74 84 87 68 61 77 74 77 74 74 71 77 84 81 84 81 81 77 81 77 77 71 65
0 0 3 3 3 0 3 10 3 3 3 6 6 10 10 13 13 16 16 29 45 71 84 81 74 68 71 77 81 84 84 81 74 81 81 71 65 71 71 84 84 77 81 74 65 68 77 71 68
3 3 3 3 3 0 0 6 6 3 10 10 10 10 13 13 19 19 23 29 48 68 81 77 84 87 84 84 84 84 81 71 68 81 77 68 68 68 77 84 74 74 77 77 81 74 81 77 77
0 3 3 3 3 0 0 6 6 6 10 10 16 16 13 23 19 19 26 32 42 68 81 81 84 87 84 90 84 84 84 77 71 77 77 65 74 81 84 65 77 68 68 71 77 81 74 81 81
0 3 3 3 3 0 0 6 6 6 6 13 16 19 19 23 19 32 32 32 52 77 87 81 87 87 87 90 90 90 84 74 74 77 84 68 58 68 52 65 74 71 71 71 74 81 77 74 77
0 0 3 3 3 3 3 3 6 6 3 3 13 23 19 13 16 32 32 39 42 74 74 74 94 94 90 87 84 81 87 84 84 77 90 77 68 58 68 68 68 68 74 71 77 74 74 65 74
0 0 0 3 3 3 3 10 13 13 10 6 6 19 19 23 29 26 42 39 52 61 71 87 90 94 94 87 84 81 81 74 77 87 87 77 61 61 61 58 68 61 68 74 71 74 74 74 68
0 0 0 3 3 3 3 3 6 13 16 6 6 6 16 26 29 42 48 55 45 45 65 84 90 90 94 94 90 90 81 84 84 84 84 77 71 61 55 52 58 61 58 61 65 71 68 65 65
0 0 0 3 3 0 0 3 6 10 16 13 10 13 16 23 32 42 55 58 48 58 68 77 90 94 94 90 87 84 84 84 81 81 81 77 71 61 58 58 58 58 61 61 61 65 61 61 58
0 0 3 3 3 0 0 3 6 6 6 10 16 16 19 26 35 45 45 61 61 61 68 84 94 94 90 90 84 84 87 90 90 81 77 71 65 61 65 58 61 61 61 61 61 61 65 61 58
0 0 3 3 3 0 3 6 6 6 6 6 16 23 19 19 32 48 55 61 58 55 68 81 84 94 87 87 84 84 84 84 77 84 74 74 65 65 65 58 61 61 61 61 65 61 61 61 61
0 0 0 0 0 0 0 0 3 3 3 0 3 13 16 16 26 35 48 58 58 58 65 74 84 87 87 87 87 77 81 77 81 81 71 74 68 58 65 61 68 65 61 65 65 61 65 61 61
0 0 0 3 3 0 0 0 0 6 3 0 3 13 16 13 23 26 48 58 55 55 71 77 77 84 77 77 84 68 77 77 77 74 77 74 68 65 68 65 68 68 68 65 65 68 68 68 68
0 0 0 0 0 0 0 0 0 3 3 3 3 13 16 19 23 39 55 58 58 61 65 71 71 71 77 74 81 84 74 77 77 71 74 74 71 68 65 68 68 68 68 68 68 68 68 68 68
0 0 0 0 6 3 0 0 0 3 3 3 10 16 29 32 29 52 58 65 65 61 61 61 68 68 68 74 77 77 77 77 71 71 71 74 71 68 68 61 58 58 58 65 65 65 65 65 61

GEFSSGP_con_cape1000_336.txt.gz
Probability
26 13 10 19 23 6 0 0 0 0 3 3 0 0 0 0 0 0 0 6 10 19 32 61 68 65 65 68 68 71 81 81 77 68 65 68 55 61 58 58 58 58 58 58 55 45 45 48 45
3 3 19 26 6 0 0 0 0 3 3 3 3 3 0 0 3 0 0 13 6 13 26 42 71 68 71 74 74 68 74 74 77 71 65 71 68 71 61 58 45 45 55 52 52 48 42 45 45
0 26 35 19 6 0 0 0 3 3 3 3 0 3 0 0 3 0 3 13 10 13 23 52 68 71 71 77 74 74 71 77 77 74 65 77 74 68 68 61 52 61 61 55 48 42 42 45 42
13 32 16 6 3 0 0 0 0 0 3 3 3 0 3 3 3 3 10 13 6 6 26 61 81 71 68 77 74 74 74 71 71 65 65 61 65 65 61 61 58 58 48 45 39 42 39 42 42
10 10 6 3 0 0 0 3 0 0 3 3 0 0 3 3 3 3 6 10 6 3 23 55 81 74 74 77 71 68 65 71 65 61 65 61 58 61 65 55 52 48 45 45 39 39 42 39 39
6 3 0 0 0 0 0 0 0 3 3 3 3 0 0 0 3 3 3 3 3 10 16 58 87 81 77 84 81 81 77 81 81 74 61 61 65 55 55 52 52 42 35 42 48 42 45 45 35
0 0 0 0 0 0 0 0 0 0 3 0 3 0 0 3 3 3 3 3 10 3 10 35 65 74 87 87 90 87 90 77 74 77 68 74 65 61 65 52 55 45 42 45 55 42 45 45 42
3 0 0 0 0 0 0 0 3 3 0 0 3 3 0 0 3 3 6 3 6 6 10 13 19 29 42 55 81 84 77 81 77 77 71 71 65 61 55 48 61 52 52 52 48 48 55 52 52
3 0 0 0 0 0 0 3 6 6 3 3 3 3 3 3 6 6 3 3 6 6 0 0 0 3 6 16 58 61 68 71 65 65 77 55 23 26 32 39 58 55 58 61 55 61 58 52 58
3 0 0 3 3 0 3 3 3 6 10 3 0 0 0 0 0 3 3 3 6 6 3 0 0 0 0 3 10 16 23 19 19 19 16 10 6 3 10 29 65 65 65 61 58 61 58 35 23
3 0 0 3 3 3 3 3 3 6 10 0 0 0 3 6 0 3 3 3 6 10 10 3 0 0 0 0 3 3 3 6 6 6 6 3 3 6 6 6 23 32 42 26 29 45 16 6 6
0 0 3 3 3 3 3 3 3 6 6 10 3 0 3 3 3 0 3 6 10 10 10 3 0 3 3 0 3 3 3 6 6 3 3 6 6 3 3 3 6 6 6 6 3 6 6 3 3
0 3 3 3 3 3 6 0 0 3 6 10 6 3 3 3 0 0 3 6 10 16 10 10 6 6 10 6 3 3 6 10 3 6 6 6 6 3 3 6 6 3 6 6 6 3 0 3 6
0 0 0 0 0 3 10 6 3 3 6 10 6 3 3 3 3 3 3 6 10 13 10 13 10 3 0 0 0 0 3 10 10 10 10 10 13 10 10 10 6 6 6 6 6 6 0 6 6
0 0 0 0 0 0 6 6 6 6 6 6 6 6 6 3 3 6 3 6 10 10 6 6 3 6 3 3 3 6 10 10 6 6 6 6 16 13 13 13 16 6 3 6 6 3 0 3 6
0 0 0 0 0 0 0 3 6 3 3 0 3 3 3 0 6 13 13 10 10 6 10 6 16 10 10 10 10 6 6 6 13 13 10 10 13 23 13 19 6 6 13 6 10 3 3 3 6
0 0 0 3 0 0 0 0 3 3 3 3 0 3 0 3 6 13 19 10 13 13 10 6 13 13 13 13 13 10 10 10 13 16 10 13 19 23 23 19 13 16 13 10 10 6 10 6 10
0 0 0 0 3 0 0 0 3 3 3 3 3 3 3 3 6 19 23 23 16 16 10 6 13 13 10 13 10 10 10 13 16 13 3 16 26 23 19 26 23 23 16 6 3 6 10 10 10
0 0 0 0 3 0 0 0 3 0 3 3 3 3 0 3 3 13 23 26 23 16 16 13 13 10 16 16 13 13 16 13 16 13 13 19 19 26 19 19 16 16 23 23 13 13 10 13 6
0 0 3 3 0 0 0 0 0 0 0 3 3 3 3 0 6 6 19 19 23 16 16 16 10 10 16 23 16 23 23 16 16 10 16 16 19 19 23 16 19 19 23 23 19 16 13 13 10
0 0 0 3 3 6 3 0 0 0 0 3 3 3 3 10 6 6 10 23 26 19 26 16 23 13 16 29 32 23 26 26 13 13 23 19 16 16 26 23 23 23 23 23 19 16 19 19 16
0 0 0 3 3 0 3 0 0 0 0 0 3 3 6 10 10 10 13 13 13 23 23 19 23 23 16 23 23 19 13 13 16 10 13 19 19 13 16 19 19 19 23 23 19 23 19 16 19
0 0 0 0 3 0 0 0 0 0 0 0 0 6 6 6 13 16 16 16 23 26 29 32 35 26 26 29 23 23 23 3 3 6 13 19 19 19 16 16 26 16 23 26 19 23 16 16 19
0 0 0 0 0 0 0 0 0 3 3 3 6 6 6 10 10 10 13 13 23 29 42 45 35 45 35 32 35 23 23 26 16 13 10 13 23 16 13 19 32 26 23 29 26 32 26 23 23
0 0 0 0 0 0 0 0 0 0 3 3 3 6 6 13 13 16 13 19 23 26 39 52 52 52 42 39 35 26 26 29 29 19 16 13 16 23 16 19 29 32 26 32 32 29 29 23 23
0 0 0 0 0 0 0 0 0 3 3 3 3 6 6 6 10 13 13 16 23 35 45 48 52 48 48 42 39 29 29 29 29 29 26 26 19 23 26 26 23 35 32 35 39 39 35 26 23
0 0 0 0 0 0 0 0 0 3 3 3 3 3 10 6 19 19 19 23 32 35 42 39 35 39 42 45 42 39 35 29 26 26 29 32 26 35 35 32 32 29 35 32 29 29 29 26 29
0 0 0 0 0 0 0 0 0 0 3 3 3 6 6 10 13 23 29 35 35 32 35 39 35 32 45 45 52 45 35 39 32 29 32 32 32 29 29 32 35 35 32 29 29 26 23 26 26
0 0 0 0 0 0 0 0 0 0 3 3 6 10 10 13 16 23 23 26 32 32 29 35 39 45 52 48 55 45 42 45 42 35 29 32 32 29 32 32 32 32 29 32 32 29 29 29 26
0 0 0 0 0 0 0 0 0 0 0 6 13 13 13 10 16 23 26 23 32 39 39 39 48 52 48 45 39 35 39 39 39 35 32 29 29 32 26 32 39 39 32 29 29 32 35 35 35

GEFSSGP_con_cape1000_342.txt.gz
Probability
13 13 3 0 3 3 0 0 0 0 0 0 0 0 0 0 0 0 3 3 6 10 23 55 65 58 55 68 74 71 65 65 71 71 74 71 61 58 68 65 58 68 58 52 52 52 45 45 52
10 6 3 10 3 0 0 0 0 0 0 0 0 0 0 0 0 0 3 3 6 6 16 35 55 61 68 68 71 71 65 61 71 68 77 74 61 58 68 68 61 61 55 55 55 45 42 48 48
3 6 16 6 3 0 0 0 0 0 0 0 0 0 3 3 0 0 0 0 0 10 10 29 58 71 71 65 74 71 68 71 81 68 68 68 65 68 71 65 61 58 45 52 45 45 45 42 45
6 6 3 3 0 0 0 0 0 0 0 0 0 0 0 3 3 0 3 0 0 6 10 29 61 71 74 81 74 77 74 74 77 68 71 65 71 68 61 58 52 52 45 48 48 39 39 45 45
6 6 3 0 0 0 0 0 0 0 0 0 0 0 0 0 0 3 3 3 3 3 6 23 65 71 77 77 68 74 74 84 81 74 74 74 71 74 68 58 52 48 48 48 48 29 35 48 52
6 0 0 0 0 0 0 0 0 0 0 0 0 0 0 0 0 3 6 6 3 10 10 29 65 77 77 81 74 71 71 68 77 77 71 65 74 74 68 65 61 58 58 55 48 39 42 48 48
0 0 0 0 0 0 0 0 0 0 0 0 0 0 0 0 0 0 3 3 0 6 10 13 32 58 84 84 77 71 81 68 74 77 74 68 74 71 65 58 55 52 52 52 48 48 39 52 48
0 0 0 0 0 0 0 0 0 3 3 3 0 0 0 0 0 0 0 3 0 0 3 10 16 16 23 39 65 77 74 68 65 68 68 71 65 58 48 52 55 55 48 52 48 45 39 48 45
3 0 0 0 0 0 0 0 3 3 0 3 3 0 0 0 3 0 0 3 3 3 0 3 6 10 10 16 32 42 48 52 48 45 68 39 23 23 29 35 45 52 48 42 58 48 52 45 52
3 0 0 0 0 0 3 0 3 3 0 0 0 0 0 3 3 3 3 3 0 0 0 0 3 0 0 3 0 10 16 16 13 13 10 6 3 0 19 29 45 55 52 55 58 55 39 26 23
3 3 0 0 0 3 3 0 0 0 0 0 0 0 3 3 3 3 3 3 3 0 0 0 0 0 0 0 0 0 6 6 6 6 3 0 3 0 3 0 16 19 23 19 23 19 23 16 13
3 0 0 0 3 3 0 0 0 0 0 0 0 0 3 3 3 3 3 3 3 0 0 0 0 0 0 0 0 0 3 3 3 3 0 0 0 0 0 0 6 10 13 10 10 10 3 10 3
3 0 0 0 0 0 0 0 0 3 0 0 0 0 0 0 3 3 3 6 3 3 0 0 0 0 0 0 0 0 0 0 0 0 0 0 0 0 0 3 3 3 3 6 3 3 3 3 3
0 0 0 0 0 0 0 0 3 3 0 0 0 0 0 0 0 0 6 3 0 0 0 0 0 0 0 0 0 0 0 0 0 0 0 0 0 0 3 3 3 3 3 3 3 3 3 3 0
0 0 0 0 0 0 0 0 0 6 0 3 0 0 0 0 0 3 6 3 0 0 3 3 3 0 0 0 0 0 0 0 0 0 3 3 3 0 3 3 3 0 0 3 3 3 0 3 0
0 0 0 0 0 0 0 0 3 0 3 3 3 3 3 0 0 6 6 3 0 0 3 3 6 3 0 0 0 0 0 3 3 3 3 3 6 3 3 3 0 0 3 3 3 0 6 6 6
0 0 0 0 0 0 0 0 3 3 3 0 0 3 0 0 3 6 6 3 3 0 0 3 0 3 0 0 0 0 0 6 3 3 3 3 3 10 3 3 6 10 13 6 6 3 3 6 6
0 0 0 0 0 0 0 0 0 3 3 3 0 0 0 0 6 6 6 3 0 0 0 0 0 3 3 3 3 3 6 3 0 0 0 0 6 10 13 6 6 10 13 13 6 3 3 6 3
0 0 0 0 0 0 0 0 0 3 3 3 3 3 6 6 3 6 6 3 6 0 0 0 0 6 6 6 3 3 3 3 0 0 3 3 6 6 10 10 3 10 13 10 13 6 10 10 3
0 0 0 0 0 0 0 0 0 0 0 0 0 0 0 3 3 3 0 3 3 0 0 3 3 6 6 6 3 3 3 3 0 0 3 3 0 3 16 13 13 13 16 16 13 16 16 16 10
0 0 0 0 0 0 0 0 0 0 0 0 3 0 0 3 3 3 3 10 3 3 0 13 6 6 6 6 6 6 3 3 0 0 0 0 10 13 13 13 16 13 16 16 16 16 16 16 13
0 0 0 0 0 0 0 0 0 0 0 0 0 0 3 3 3 3 6 10 13 3 3 6 6 6 6 6 6 6 3 3 3 3 0 0 3 10 6 13 16 13 16 16 16 19 16 16 19
0 0 0 0 0 0 0 0 0 0 0 0 0 0 3 3 3 6 6 6 10 10 10 6 6 6 6 6 6 3 0 0 0 0 0 0 10 13 13 13 13 10 13 16 13 16 16 16 19
0 0 0 0 0 0 0 0 0 0 0 0 0 0 3 6 3 3 6 10 13 19 16 13 10 13 6 3 0 0 0 0 0 0 0 6 6 10 10 19 13 13 10 16 19 10 19 16 19
0 0 0 0 0 0 0 0 0 0 0 0 0 0 3 10 13 10 10 13 10 23 23 23 16 13 10 6 6 3 3 6 3 0 3 6 6 10 10 10 10 10 16 16 16 16 16 16 16
0 0 0 0 0 0 0 0 0 0 0 0 0 3 3 6 6 10 10 10 16 16 16 19 16 16 13 6 10 10 10 10 10 10 13 10 10 10 10 10 10 10 13 16 16 19 16 19 16
0 0 0 0 0 0 0 0 0 0 0 0 3 3 6 6 6 3 6 6 10 10 13 13 13 6 10 10 13 6 13 13 6 16 13 10 6 6 10 10 6 6 10 10 19 23 19 26 19
0 0 0 0 0 0 0 0 0 0 0 3 3 3 6 6 6 6 6 10 10 6 13 10 13 13 13 13 16 19 13 6 6 10 13 13 13 10 6 10 10 10 10 16 16 13 16 19 19
0 0 0 0 0 0 0 0 0 0 0 3 3 0 3 3 6 6 6 10 6 10 6 16 19 13 13 16 13 13 10 6 10 10 13 19 16 16 13 10 10 13 13 16 13 13 16 19 23
0 0 0 0 0 0 0 0 3 0 0 0 0 10 6 10 10 10 6 10 10 6 13 10 10 16 13 16 13 10 10 13 10 6 6 10 10 13 10 16 13 16 19 19 16 23 23 23 23